TimeEST,TemperatureF,Dew PointF,Humidity,Sea Level PressureIn,VisibilityMPH,Wind Direction,Wind SpeedMPH,Gust SpeedMPH,PrecipitationIn,Events,Conditions,WindDirDegrees,DateUTC
12:15 AM,59.0,59.0,100,30.14,0.2,Calm,Calm,-,N/A,Fog,Fog,0,2013-01-13 05:15:00
12:35 AM,55.4,55.4,100,30.14,0.5,Calm,Calm,-,N/A,Fog,Fog,0,2013-01-13 05:35:00
12:55 AM,55.4,55.4,100,30.14,0.2,Calm,Calm,-,N/A,Fog,Fog,0,2013-01-13 05:55:00
1:15 AM,55.4,55.4,100,30.14,0.2,Calm,Calm,-,N/A,Fog,Fog,0,2013-01-13 06:15:00
1:35 AM,53.6,53.6,100,30.13,5.0,Calm,Calm,-,N/A,,Clear,0,2013-01-13 06:35:00
1:55 AM,55.4,55.4,100,30.13,6.0,Calm,Calm,-,N/A,,Clear,0,2013-01-13 06:55:00
2:15 AM,55.4,55.4,100,30.13,4.0,Calm,Calm,-,N/A,,Clear,0,2013-01-13 07:15:00
2:35 AM,53.6,53.6,100,30.12,3.0,Calm,Calm,-,N/A,,Clear,0,2013-01-13 07:35:00
2:55 AM,53.6,53.6,100,30.12,0.8,Calm,Calm,-,N/A,,Mist,0,2013-01-13 07:55:00
3:15 AM,55.4,55.4,100,30.12,0.8,Calm,Calm,-,N/A,,Mist,0,2013-01-13 08:15:00
3:35 AM,53.6,53.6,100,30.11,0.2,Calm,Calm,-,N/A,Fog,Fog,0,2013-01-13 08:35:00
3:55 AM,53.6,53.6,100,30.11,0.5,Calm,Calm,-,N/A,Fog,Fog,0,2013-01-13 08:55:00
4:35 AM,53.6,53.6,100,30.10,0.5,Calm,Calm,-,N/A,Fog,Fog,0,2013-01-13 09:35:00
4:55 AM,51.8,51.8,100,30.10,3.0,Calm,Calm,-,N/A,,Clear,0,2013-01-13 09:55:00
5:15 AM,53.6,53.6,100,30.10,0.2,Calm,Calm,-,N/A,Fog,Fog,0,2013-01-13 10:15:00
5:35 AM,53.6,53.6,100,30.10,0.2,Calm,Calm,-,N/A,Fog,Fog,0,2013-01-13 10:35:00
5:55 AM,53.6,53.6,100,30.10,6.0,Calm,Calm,-,N/A,,Mostly Cloudy,0,2013-01-13 10:55:00
6:15 AM,55.4,55.4,100,30.11,5.0,Calm,Calm,-,N/A,,Overcast,0,2013-01-13 11:15:00
6:35 AM,55.4,55.4,100,30.11,8.0,Calm,Calm,-,N/A,,Overcast,0,2013-01-13 11:35:00
6:50 AM,55.4,55.4,100,30.11,7.0,Calm,Calm,-,N/A,,Mostly Cloudy,0,2013-01-13 11:50:00
7:50 AM,59.0,59.0,100,30.14,7.0,Calm,Calm,-,N/A,,Mostly Cloudy,0,2013-01-13 12:50:00
8:50 AM,62.6,62.6,100,30.17,7.0,Calm,Calm,-,N/A,,Mostly Cloudy,0,2013-01-13 13:50:00
9:50 AM,68.0,66.2,94,30.19,10.0,South,5.8,-,N/A,,Mostly Cloudy,180,2013-01-13 14:50:00
11:50 AM,77.0,62.6,61,30.14,10.0,South,11.5,-,N/A,,Clear,170,2013-01-13 16:50:00
12:50 PM,77.0,60.8,57,30.12,10.0,South,5.8,-,N/A,,Partly Cloudy,180,2013-01-13 17:50:00
1:50 PM,78.8,59.0,51,30.09,10.0,South,4.6,-,N/A,,Scattered Clouds,180,2013-01-13 18:50:00
2:50 PM,78.8,59.0,51,30.10,10.0,Calm,Calm,-,N/A,,Partly Cloudy,0,2013-01-13 19:50:00
3:50 PM,75.2,60.8,61,30.11,10.0,SE,8.1,-,N/A,,Clear,130,2013-01-13 20:50:00
6:50 PM,68.0,62.6,83,30.11,10.0,SE,5.8,-,N/A,,Clear,130,2013-01-13 23:50:00
8:15 PM,64.4,62.6,94,30.12,10.0,Calm,Calm,-,N/A,,Clear,0,2013-01-14 01:15:00
8:35 PM,62.6,62.6,100,30.13,10.0,Calm,Calm,-,N/A,,Clear,0,2013-01-14 01:35:00
8:55 PM,60.8,60.8,100,30.13,10.0,Calm,Calm,-,N/A,,Clear,0,2013-01-14 01:55:00
9:15 PM,59.0,59.0,100,30.13,10.0,Calm,Calm,-,N/A,,Clear,0,2013-01-14 02:15:00
9:35 PM,59.0,59.0,100,30.14,7.0,Calm,Calm,-,N/A,,Clear,0,2013-01-14 02:35:00
9:55 PM,57.2,57.2,100,30.14,8.0,Calm,Calm,-,N/A,,Clear,0,2013-01-14 02:55:00
10:15 PM,57.2,57.2,100,30.15,8.0,Calm,Calm,-,N/A,,Clear,0,2013-01-14 03:15:00
10:35 PM,57.2,57.2,100,30.16,6.0,Calm,Calm,-,N/A,,Scattered Clouds,0,2013-01-14 03:35:00
10:55 PM,57.2,57.2,100,30.16,5.0,Calm,Calm,-,N/A,,Scattered Clouds,0,2013-01-14 03:55:00
11:15 PM,57.2,57.2,100,30.15,5.0,Calm,Calm,-,N/A,,Scattered Clouds,0,2013-01-14 04:15:00
11:35 PM,57.2,57.2,100,30.16,1.2,Calm,Calm,-,N/A,,Scattered Clouds,0,2013-01-14 04:35:00
11:55 PM,57.2,57.2,100,30.16,2.0,Calm,Calm,-,N/A,,Mostly Cloudy,0,2013-01-14 04:55:00